Hourly Data Report for September 11, 2015

EUREKA CLIMATE
NUNAVUT

79°59'21.000" N
85°56'02.000" W
10.00 m
2401199
71613
NEK

Download Data

Hourly Data (September 2015)
Hourly Data Report for September 11, 2015
TIME
LST
Temp Definition
°C
Dew Point Definition
°C
Rel Hum Definition
%
Precip. Amount Definition
mm

Wind Dir Definition
10's deg

Wind Spd Definition
km/h
Visibility Definition
km
Stn Press Definition
kPa
Hmdx Definition


Wind Chill Definition


Weather Definition


00:00 -1.2 -1.9 95 0.0 29 15   100.02   -6 LegendNANA
01:00 -1.3 -2.0 96 0.0 29 16   100.02   -6 LegendNANA
02:00 -1.4 -1.8 96 0.0 29 16   100.04   -6 LegendNANA
03:00 -1.5 -1.9 98 0.0 29 16   100.06   -6 LegendNANA
04:00 -1.3 -1.6 98 0.2 29 14   100.08   -6 LegendNANA
05:00 -1.0 -1.3 98 0.0 29 12   100.10   -5 LegendNANA
06:00 -1.0 -1.8 94 0.0 29 13   100.11   -5 LegendNANA
07:00 -0.8 -2.2 90 0.0 28 13   100.13   -5 LegendNANA
08:00 -0.8 -2.6 88 0.0 29 17   100.15   -6 LegendNANA
09:00 -1.0 -2.9 87 0.0 29 16   100.14   -6 LegendNANA
10:00 -0.9 -2.9 86 0.0 29 14   100.15   -5 LegendNANA
11:00 -1.0 -2.7 88 0.0 28 15   100.17   -6 LegendNANA
12:00 -1.1 -2.9 88 0.0 28 11   100.19   -5 LegendNANA
13:00 -0.9 -2.6 88 0.0 28 9   100.21   -4 LegendNANA
14:00 -0.9 -2.8 87 0.0 29 6   100.24   -3 LegendNANA
15:00 -0.7 -2.7 86 0.0 19 3   100.25   -2 LegendNANA
16:00 -0.8 -2.4 89 0.0 14 12   100.27   -5 LegendNANA
17:00 -1.1 -2.6 89 0.0 15 11   100.30   -5 LegendNANA
18:00 -1.2 -2.1 94 0.0 15 12   100.32   -5 LegendNANA
19:00 -1.3 -2.2 94 0.0 14 7   100.34   -4 LegendNANA
20:00 -1.5 -2.7 91 0.0 16 13   100.35   -6 LegendNANA
21:00 -1.7 -2.8 92 0.0 13 16   100.37   -7 LegendNANA
22:00 -1.9 -3.0 93 0.0 14 15   100.38   -7 LegendNANA
23:00 -2.5 -3.2 95 0.0 17 5   100.41   -4 LegendNANA

Notes on Data Quality.

Legend

  • E = Estimated
  • M = Missing
  • NA = Not Available*
  • [empty] = Indicates an unobserved value
Date modified: